Погода Баяндай

Погода Баяндай : погода сейчас, прогноз погоды и архив. Всё, что Вы хотите узнать о погоде Баяндай!

Хотите узнать прогноз погоды Баяндай? Тогда Вам сюда: Погода Баяндай

Поиск расширенной информации на нашем сайте:

Другие новости

Новости СМИ2

Главная страница сайта

Новости сайта

03.07.2017

Напоминаем, что на нашем специализированном сайте Метеоцентр.Азия вы можете получить высокодетализированные автоматические прогнозы погоды по пунктам России, СНГ и мира в авиационном формате (включающие направление и скорость ветра, видимость, явления погоды, количество и форму облачности, нижнюю и верхнюю границу облачности).


Погода Баяндай - сегодня

Время (UTC), дата Ветер
(°,м/с) 
Видим.   Явления Облачность Т
(°С)
Тd
(°С)
f(%) Тe
(°С)
Pmin
(гПа)
dP
(гПа)
Po
(мм)
O2
(г/м3)
Тmin Tmax R s Состояние
почвы
18 12.10.18 030 (СВ) 20000 м    ясно 
-0.4 -6.7 62 -2  1025.9  -0.3  700  283           
21 12.10.18 020 (С) 20000 м    ясно 
-3.2 -6.8 76 -5  1026.8  -0.1  700  286           
00 13.10.18 030 (СВ) 20000 м    ясно 
-4.7 -7.1 83 -7  1027.8  0.4  700  288  -4.9        замёрзшая 
03 13.10.18 040 (СВ) 20000 м    ясно 
+1.4 -4.4 65 +1  1025.9  0.2  701  281           
06 13.10.18 110 (В) 20000 м    ясно 
+8.3 -3.2 44 +8  1022.1  -1.3  700  274           
09 13.10.18 040 (СВ) 20000 м    ясно 
+8.2 -4.9 39 +7  1021.2  -0.9  699  274           
12 13.10.18 090 (В) 20000 м    ясно 
+2.9 -2.8 66 +4  1023.3  0.4  699  279    +9.6       
15 13.10.18 030 (СВ) 20000 м    ясно 
+2.1 -3.9 64 +1  1023.4  -0.2  699  280           
18 13.10.18 030 (СВ) н/о    н/о 
-0.2 -4.4 73 -2  1023.2  -0.9  698  282           
21 13.10.18 020 (С) 20000 м    ясно 
-2.2 -5.2 80 -5  1023.6  -0.3  698  284           
00 14.10.18 020 (С) 20000 м    ясно 
-2.7 -5.5 81 -5  1023.9  0.2  698  285  -2.8        замёрзшая 
03 14.10.18 040 (СВ) 20000 м    ясно 
+4.4 -2.4 61 +4  1021.7  0.2  698  277           
06 14.10.18 130 (ЮВ) 20000 м    ясно 
+10.9 -0.6 45 +11  1019  -0.5  698  270           
09 14.10.18 140 (ЮВ) 20000 м    ясно 
+10 -2.2 42 +10  1019.7  0.4  698  272           
12 14.10.18 060 (СВ) н/о    ясно 
+3.8 -3.7 58 +3  1023  1.1  699  278    +11.7       
15 14.10.18 030 (СВ) 20000 м    ясно 
+3 -4.1 60 +4  1023.6  0.3  699  279           
18 14.10.18 020 (С) 20000 м    ясно 
+2.3 -4 63 +1  1023.8  0.1  699  280           
21 14.10.18 020 (С) 20000 м    ясно 
-0.4 -4.5 74 -2  1024.7  699  283           
00 15.10.18 030 (СВ) 20000 м    ясно 
-1.1 -4.4 78 -3  1024.9  699  283  -1.1        замёрзшая 
03 15.10.18 040 (СВ) 20000 м    ясно 
+5.4 -3.1 54 +5  1023  0.3  700  277  -1.5         
06 15.10.18 050 (СВ) 20000 м    ясно 
+10.4 -3.4 38 +11  1020.6  -0.7  699  272           
09 15.10.18 190 (Ю) 20000 м    ясно 
+12.4 -3.1 34 +14  1020  699  270           
12 15.10.18 040 (СВ) 20000 м    ясно 
+6.5 -3.3 50 +7  1023.3  1.3  700  276    +13.3       
15 15.10.18 260 (З) 20000 м    3/0 верхняя 
[Ci fib]
+4.5 -2.7 59 +4  1025.4  1.3  701  278           
18 15.10.18 250 (З) 20000 м    ясно 
-0.2 -3.4 79 -2  1027.7  0.6  701  283           
Время (UTC), дата Ветер
(°,м/с) 
Видим.   Явления Облачность Т
(°С)
Тd
(°С)
f(%) Тe
(°С)
Pmin
(гПа)
dP
(гПа)
Po
(мм)
O2
(г/м3)
Тmin Tmax R s Состояние
почвы

Для получения пояснительной информации подведите курсор к названию столбца.

ПОГОДА Баяндай - архив

Всё, что Вы хотите узнать о погоде Баяндай - удобно и подробно!

Выберите нужную дату (начиная с 1 января 2015* года) и нажмите кнопку "Найти".
Будут отображены архивные сводки погоды по пункту Баяндай, начиная с указанной даты.


Отображать данные в формате CSV (для использования в таблицах Excel)


Внимание! Наш архив погоды предназначен исключительно для личного некоммерческого использования в познавательных целях. Если Вам необходимы официальные справки о состоянии погоды (для производственных, юридических, коммерческих и т.п. целей), обращайтесь в органы Росгидромета.

*Примечание: данная дата относится к архиву по метеостанциям СССР (Россия, СНГ, Балтия).
Архив по метеостанциям Зарубежной Европы и Азии (кроме Китая) хранится 10 дней, по другим регионам земного шара (Китай, Африка, Америка, Австралия, Океания) - 1 день.

Баяндай - район местоположения метеостанции


Название, широта, долгота, высота метеостанции:
Баяндай 53.1°ш. 105.5°д. 762 м над ур. моря [Российская Федерация]

Дополнительная информация

В oтличие oт бoльшинства пoгoдных сайтoв мы публикуем пoдрoбную метеoинфoрмацию в детальнoм прoфессиoнальнoм фoрмате.

Характеристики температуры и влажнoсти вoздуха измеряются на высoте 2 м в тени вдали oт зданий и деревьев.
Скoрoсть ветра измеряется на высoте 10 м (на урoвне рoста челoвека скoрoсть ветра ниже в 1.5-2 раза). Если метеoстанция нахoдится в гoрoде или в лесу, тo скoрoсть ветра занижена на 2-4 м/с пo сравнению с oткрытым местoм. Скoрoсть ветра над акватoриями крупных рек и oзёр, а также на вершинах хoлмoв на 2-5 м/с выше, чем в oбычных услoвиях.
Атмoсфернoе давление в разных тoчках местнoсти мoжет значительнo oтличаться oт давления на метеoстанции, в зависимoсти oт услoвий рельефа (при пoдъёме на 10 м давление пoнижается примернo на 1 мм рт.ст.).